231346 Weather Reports


time (UTC)temp
C
wind
direction
speed
KPH
gust
KPH
rain 1hr
cm
rain 24hr
cm
rain mn
cm
humidity
%
barometer
mb
20260502151516 -17 43 1.6 4.8 0.00 0.00 0.00 1017.3
20260502123032 -17 38 0.0 1.6 0.00 0.00 0.00 1017.1
20260502121531 -17 38 0.0 3.2 0.00 0.00 0.00 1017.1
20260502114527 -17 41 1.6 4.8 0.00 0.00 0.00 1017.3
20260502113027 -17 47 0.0 3.2 0.00 0.00 0.00 1017.3
20260502111524 -17 47 0.0 3.2 0.00 0.00 0.00 1017.0
20260502110023 -17 317 0.0 0.0 0.00 0.00 0.00 1017.1
20260502104526 -17 317 0.0 1.6 0.00 0.00 0.00 1017.6
20260502103018 -17 13 1.6 6.4 0.00 0.00 0.00 1017.9
20260502101512 -17 67 3.2 8.0 0.00 0.00 0.00 1017.6
20260502091504 -17 75 1.6 8.0 0.00 0.00 0.00 1017.1
20260502090122 -17 61 0.0 3.2 0.00 0.00 0.00 1017.1
20260502071532 -17 68 0.0 8.0 0.00 0.00 0.00 1017.1
20260502070045 -17 70 6.4 14.5 0.00 0.00 0.00 1017.0
20260502064525 -17 90 3.2 9.7 0.00 0.00 0.00 1016.9
20260502063026 -17 68 6.4 14.5 0.00 0.00 0.00 1017.0
20260502061517 -17 61 3.2 8.0 0.00 0.00 0.00 1016.9
20260502060026 -17 80 3.2 14.5 0.00 0.00 0.00 1016.9
20260502054508 -17 73 4.8 14.5 0.00 0.00 0.00 1016.7
20260502053004 -17 72 8.0 16.1 0.00 0.00 0.00 1016.8
20260502051603 -17 74 8.0 14.5 0.00 0.00 0.00 1016.6
20260502050054 -17 69 6.4 11.3 0.00 0.00 0.00 1016.8
20260502043105 -17 77 6.4 16.1 0.00 0.00 0.00 1016.5
20260502041613 -17 57 8.0 16.1 0.00 0.00 0.00 1016.3
20260502040054 -17 63 4.8 16.1 0.00 0.00 0.00 1016.0
20260502033047 -17 56 4.8 9.7 0.00 0.00 0.00 1015.7
20260502031546 -17 21 3.2 11.3 0.00 0.00 0.00 1015.3
20260502030101 -17 90 6.4 9.7 0.00 0.00 0.00 1015.0
20260502023107 -17 26 4.8 11.3 0.00 0.00 0.00 1014.7
20260502021545 -17 60 3.2 6.4 0.00 0.00 0.00 1014.5
20260502020044 -17 60 1.6 14.5 0.00 0.00 0.00 1014.5
20260502013054 -17 57 4.8 9.7 0.00 0.00 0.00 1014.3
20260502011603 -17 94 8.0 14.5 0.00 0.00 0.00 1014.2
20260502010044 -17 72 6.4 19.3 0.00 0.00 0.00 1014.2
20260502003042 -17 38 0.0 12.9 0.00 0.00 0.00 1014.0
20260502001544 -17 12 1.6 8.0 0.00 0.00 0.00 1013.9
20260502000053 -17 32 4.8 12.9 0.00 0.00 0.00 1013.9
20260501233031 -17 13 4.8 9.7 0.00 0.00 0.00 1014.0
20260501231528 -17 45 1.6 8.0 0.00 0.00 0.00 1014.0
20260501230042 -17 54 3.2 8.0 0.00 0.00 0.00 1014.2
20260501223019 -17 60 0.0 6.4 0.00 0.00 0.00 1014.6
20260501221511 -17 47 4.8 8.0 0.00 0.00 0.00 1014.7
20260501220006 -17 21 0.0 4.8 0.00 0.00 0.00 1014.9
20260501213104 -17 44 0.0 4.8 0.00 0.00 0.00 1015.2
20260501211554 -17 65 1.6 4.8 0.00 0.00 0.00 1015.4
20260501210049 -17 43 3.2 6.4 0.00 0.00 0.00 1015.6
20260501203043 -17 56 6.4 9.7 0.00 0.00 0.00 1015.7
20260501201541 -17 57 4.8 9.7 0.00 0.00 0.00 1015.8
20260501200033 -17 45 4.8 8.0 0.00 0.00 0.00 1016.0
20260501193033 -17 65 4.8 9.7 0.00 0.00 0.00 1016.3
20260501191524 -17 61 8.0 11.3 0.00 0.00 0.00 1016.4
20260501190022 -17 57 6.4 9.7 0.00 0.00 0.00 1016.6
20260501183011 -17 55 4.8 8.0 0.00 0.00 0.00 1016.9
20260501181506 -17 61 3.2 8.0 0.00 0.00 0.00 1016.9
20260501180002 -17 51 4.8 8.0 0.00 0.00 0.00 1016.9
20260501173108 -17 61 6.4 12.9 0.00 0.00 0.00 1017.1
20260501171604 -17 71 9.7 16.1 0.00 0.00 0.00 1017.1
20260501170051 -17 65 9.7 14.5 0.00 0.00 0.00 1017.1
20260501163043 -17 39 4.8 9.7 0.00 0.00 0.00 1017.3
20260501161541 -17 58 3.2 6.4 0.00 0.00 0.00 1017.5
20260501160036 -17 62 1.6 9.7 0.00 0.00 0.00 1017.5